Home   Weather   Kaohsiung   Past weeks

Flag for Taiwan Past Weather in Kaohsiung, Taiwan — Yesterday and Last 2 Weeks

Now
82 °F

Partly cloudy.


Feels Like: 91 °F
Forecast: 79 / 91 °F
Wind: 6 mph from East

Location: Kaohsiung International Airport

Current Time: Sep 26, 2016 at 1:26:11 AM

Latest Report: Sep 26, 2016 at 12:00 AM


Visibility: 4 mi

Pressure: 29.74 "Hg

Humidity: 84%

Dew Point: 77 °F

Location of KaohsiungLocation

Past Weather in Kaohsiung — Graph

°F

Kaohsiung Temperature Yesterday

Maximum temperature yesterday: 88 °F (at 9:00 AM)
Minimum temperature yesterday: 81 °F (at 3:00 AM)
Average temperature yesterday: 84 °F

High & Low Weather Summary for the Past Weeks

 TemperatureHumidityPressure
High93 °F (Sep 12, 1:30 PM)100% (Sep 14, 5:54 AM)29.95 "Hg (Sep 14, 5:54 AM)
Low73 °F (Sep 15, 6:30 AM)59% (Sep 12, 11:30 AM)28.85 "Hg (Sep 14, 12:30 PM)
Average83 °F82%29.74 "Hg
* Reported Sep 11 12:00 AM — Sep 26 12:00 AM, Kaohsiung, Weather by CustomWeather, © 2016

Note: Actual official high and low records may vary slightly from our data, if they occured in-between our weather recording intervals... More about our weather records

Advertising

Kaohsiung Weather History for the Previous 24 Hours

Scroll right to see more
 ConditionsComfort  
Time TempWeatherWind HumidityBarometerVisibility
12:00 AM
Mon, Sep 26
82 °FPartly cloudy.6 mph84%29.74 "Hg4 mi
11:30 PM
Sun, Sep 25
82 °FPartly cloudy.5 mph84%29.74 "Hg4 mi
11:00 PM82 °FPartly cloudy.5 mph84%29.74 "Hg4 mi
10:30 PM81 °FPartly cloudy.7 mph89%29.77 "Hg4 mi
10:00 PM82 °FPartly cloudy.6 mph84%29.77 "Hg4 mi
9:30 PM84 °FPartly cloudy.5 mph84%29.77 "Hg5 mi
9:00 PM84 °FPartly cloudy.5 mph84%29.77 "Hg5 mi
8:30 PM84 °FPartly cloudy.7 mph79%29.77 "Hg6 mi
8:00 PM84 °FPartly cloudy.6 mph79%29.77 "Hg5 mi
7:30 PM84 °FPartly cloudy.5 mph79%29.74 "HgN/A
7:00 PM82 °FPassing clouds.6 mph84%29.74 "HgN/A
6:30 PM84 °FPassing clouds.8 mph74%29.74 "HgN/A
6:00 PM84 °FPassing clouds.6 mph70%29.74 "HgN/A
5:30 PM84 °FScattered clouds.8 mph66%29.74 "HgN/A
5:00 PM86 °FScattered clouds.8 mph66%29.74 "HgN/A
4:30 PM86 °FScattered clouds.9 mph66%29.74 "HgN/A
4:00 PM86 °FScattered clouds.9 mph66%29.74 "HgN/A
3:30 PM86 °FPassing clouds.9 mph70%29.71 "HgN/A
3:00 PM88 °FPassing clouds.10 mph66%29.71 "HgN/A
2:30 PM88 °FPassing clouds.10 mph66%29.71 "HgN/A
2:00 PM88 °FPassing clouds.10 mph66%29.74 "HgN/A
1:30 PM88 °FPassing clouds.12 mph66%29.74 "HgN/A
1:00 PM88 °FScattered clouds.10 mph70%29.74 "HgN/A
12:30 PM86 °FScattered clouds.9 mph75%29.74 "Hg4 mi
12:00 PM86 °FScattered clouds.9 mph75%29.77 "Hg4 mi
11:30 AM86 °FScattered clouds.10 mph75%29.77 "Hg3 mi
11:00 AM86 °FScattered clouds.9 mph75%29.80 "Hg3 mi
10:30 AM86 °FScattered clouds.7 mph79%29.80 "Hg2 mi
10:00 AM86 °FScattered clouds.7 mph79%29.80 "Hg2 mi
9:54 AM86 °FScattered clouds.8 mph79%29.80 "Hg3 mi
9:30 AM86 °FScattered clouds.5 mph75%29.80 "Hg3 mi
9:00 AM88 °FHaze.2 mph70%29.80 "Hg3 mi
8:46 AM86 °FHaze.2 mph70%29.80 "Hg3 mi
8:30 AM86 °FHaze.2 mph75%29.80 "Hg3 mi
8:00 AM84 °FHaze.3 mph79%29.80 "Hg3 mi
7:30 AM82 °FFog.6 mph84%29.80 "Hg2 mi
7:00 AM82 °FFog.5 mph84%29.77 "Hg2 mi
6:30 AM81 °FFog.5 mph89%29.77 "Hg2 mi
6:00 AM81 °FFog.2 mph89%29.77 "Hg2 mi
5:00 AM81 °FFog.5 mph89%29.77 "Hg2 mi
4:00 AM81 °FFog.5 mph89%29.77 "Hg2 mi
3:00 AM81 °FFog.5 mph89%29.77 "Hg2 mi
2:00 AM82 °FFog.5 mph84%29.80 "Hg2 mi
1:00 AM82 °FFog.3 mph84%29.80 "Hg3 mi
Weather by CustomWeather, © 2016

See weather overviewHow to use our weather pages